Regional Weather Roundup
Issued by NWS

Home | Current Version | Previous Version | Text Only | Print | Product List | Glossary On
Versions: 1 2 3 4 5 6 7 8 9 10 11 12 13 14 15 16 17 18 19 20 21 22 23 24 25 26 27 28 29 30 31 32 33 34 35 36 37 38 39 40 41 42 43 44 45 46 47 48 49 50
000
ASUS45 KBOU 042107
RWRCO

WEATHER ROUNDUP FOR COLORADO
NATIONAL WEATHER SERVICE DENVER/BOULDER CO
300 PM MDT FRI SEP 04 2015

NOTE: "FAIR" INDICATES FEW OR NO CLOUDS BELOW 12000 FEET WITH NO
SIGNIFICANT WEATHER AND/OR OBSTRUCTIONS TO VISIBILITY.

COZ001>005-013-030-031-042200-
...NORTHWEST COLORADO...

CITY           SKY/WX    TMP DP  RH WIND       PRES   REMARKS
CRAIG          CLOUDY    76  48  37 E15G21    30.04F
HAYDEN         FAIR      73  45  35 SE17      30.08F
MEEKER         CLOUDY    71  46  40 S6        30.09S
MOUNT WERNER   NOT AVBL
STEAMBOAT SPGS CLOUDY    66  48  53 E10       30.12F
WALDEN         CLOUDY    61  39  44 W10G20    30.21F
$$

COZ006>008-011-042200-
...WEST CENTRAL VALLEYS...

CITY           SKY/WX    TMP DP  RH WIND       PRES   REMARKS
GRAND JUNCTION TSTM      73  52  47 SE7       29.99F
MONTROSE       FAIR      71  52  50 SE9       30.08F
EAGLE          PTSUNNY   64  54  68 CALM      30.17F
RIFLE          CLOUDY    71  53  52 E13       30.04F
DELTA          FAIR      81  47  30 SE5       30.03F HAZE
NUCLA          RAIN      63  55  77 SW9       30.14R
$$

COZ017>023-064>068-042200-
...SOUTHWEST COLORADO...

CITY           SKY/WX    TMP DP  RH WIND       PRES   REMARKS
DURANGO        CLOUDY    67  50  54 E6        30.16F
CORTEZ         LGT RAIN  72  54  53 S8G22     30.09F
PAGOSA SPRINGS   N/A     64  49  59 N6        30.24F
TELLURIDE      FAIR      60  48  65 E3        30.29F THUNDER
WOLF CREEK PAS NOT AVBL
$$

COZ009-010-012-014-032>034-037-058>063-042200-
...CENTRAL COLORADO...

CITY           SKY/WX    TMP DP  RH WIND       PRES   REMARKS
ASPEN          PTSUNNY   61  52  72 VRB5      30.20F
BUENA VISTA    CLOUDY    68  42  38 SW7       30.21F
COPPER MTN     RAIN      46  37  71 SE10      30.50R
BERTHOUD PASS  DRIZZLE   45  32  61 S5        30.54S
COTTONWOOD PAS CLOUDY    59  46  63 CALM      30.35S
GUNNISON       FAIR      63  48  59 N6        30.23F
KREMMLING      LGT RAIN  59  50  72 SE3       30.22F
LEADVILLE      LGT RAIN  48  47  96 N5        30.36R FOG
MONARCH PASS   RAIN      45  39  81 S9G20     30.60R
SALIDA         CLOUDY    72  41  32 SW9       30.25S
SUNLIGHT       CLOUDY    52  45  76 CALM      30.42S
WILKERSON PASS CLOUDY    52  41  66 S3        30.47S
$$

COZ069>075-042200-
...SAN LUIS VALLEY/SANGRE DE CRISTO MOUNTAINS...

CITY           SKY/WX    TMP DP  RH WIND       PRES   REMARKS
ALAMOSA        FAIR      74  41  30 S8G17     30.17F
LA VETA PASS   FAIR      64  41  42 CALM      30.37F
SAGUACHE       CLOUDY    63  50  63 NW12      30.22F
$$

COZ035-036-038>040-042200-
...NORTHERN COLORADO FRONT RANGE...

CITY           SKY/WX    TMP DP  RH WIND       PRES   REMARKS
DENVER INTL AP PTSUNNY   86  38  18 SE16G25   29.97F
DMNS CITY PARK   N/A     83  43  24 SE7G13    29.96F
AURORA         PTSUNNY   85  43  23 S14       29.99F
FRONT RANGE AP PTSUNNY   90  36  14 E12G22    29.98F
ERIE MUNI ARPT FAIR      87  33  14 S7        29.95F
BOULDER MUN AP FAIR      84  36  17 S3        29.97S
CENTENNIAL     CLOUDY    81  44  27 SE8       30.01F
BROOMFIELD     PTSUNNY   84  36  17 S7        30.00F
FORT COLLINS   FAIR      88  43  20 SE12G17   29.93F
LONGMONT       FAIR      86  44  22 NW17      29.96F
$$

COZ041-046-047-076>085-087-088-042200-
...PIKES PEAK/PALMER DIVIDE AND SOUTHERN FOOTHILLS...

CITY           SKY/WX    TMP DP  RH WIND       PRES   REMARKS
COLO. SPRINGS  PTSUNNY   83  39  21 S14G24    30.07F
A. F. ACADEMY  PTSUNNY   80  38  22 S14G20    30.07F
ELLICOTT       FAIR     N/A N/A N/A S8G17     30.05F
FALCON         FAIR      80  38  22 S12G20    30.13F
FORT CARSON    FAIR      83  45  25 SE8       30.03F
LIMON          FAIR      87  43  21 S8        29.99F
MONUMENT HILL  FAIR      79  37  22 S13G21    30.11F
TRINIDAD       LGT RAIN  83  44  25 S10G21    30.04S
$$

COZ042>045-048>051-090-091-042200-
...NORTHEAST COLORADO...

CITY           SKY/WX    TMP DP  RH WIND       PRES   REMARKS
GREELEY ARPT   FAIR      90  43  19 SE15      29.94F
AKRON          FAIR      90  38  16 SE17G23   29.95F
BURLINGTON     FAIR      92  46  20 S14       29.93F
WRAY           CLOUDY    96  38  13 S5        29.88F
STERLING       FAIR      91  39  16 SE7       29.89F
HOLYOKE        FAIR      95  54  24 S9        29.88F
FORT MORGAN    FAIR      91  34  13 SE3       29.94F
$$

COZ086-089-092>099-042200-
...SOUTHEAST COLORADO...

CITY           SKY/WX    TMP DP  RH WIND       PRES   REMARKS
PUEBLO         FAIR      88  44  21 E6        29.94F
LA JUNTA       FAIR      94  47  20 E12       29.90F
LAMAR          FAIR      95  52  23 SE12G21   29.87F
SPRINGFIELD      N/A     92  48  22 S15G31    29.94F
$$




USA.gov is the U.S. government's official web portal to all federal, state and local government web resources and services.